Simultaneous Nadir Overpasses (SNOs) Predictions

Prediction of SNOs between AQUA and METOP-A Satellite Orbit:

Table of predicted SNOs for the next 14.0 days since TLE Epoch: 11/25/2011
Index Date Time (AQUA) AQUA Lat,Lon METOP-A Lat,Lon Distance(km) Time Diff (sec)
1 11/26/2011 03:02:19 -72.81, -49.67 -72.75, -53.40 123.22 62
2 11/26/2011 03:52:04 73.72, 116.08 73.70, 116.05 2.09 26
3 11/26/2011 04:41:31 -73.80, -76.45 -73.78, -76.43 1.51 47
4 11/26/2011 05:31:36 75.70, 86.31 75.62, 96.00 266.67 44
5 11/28/2011 22:36:40 -73.07, 16.24 -72.99, 13.52 88.62 66
6 11/28/2011 23:26:20 73.72,-177.50 73.74,-177.44 2.69 21
7 11/29/2011 00:15:47 -73.80, -10.02 -73.77, -10.04 2.87 53
8 11/29/2011 01:05:58 76.00, 151.83 75.94, 163.46 313.04 37
9 12/01/2011 18:11:00 -73.30, 82.22 -73.27, 80.56 52.97 69
10 12/01/2011 19:00:36 73.74,-111.10 73.72,-111.07 2.62 14
11 12/01/2011 19:50:03 -73.82, 56.38 -73.80, 56.45 2.58 59
12 12/01/2011 20:40:22 76.41,-143.05 76.33,-128.74 374.30 27
13 12/04/2011 13:45:20 -73.59, 148.04 -73.55, 147.60 14.62 72
14 12/04/2011 14:34:50 73.73, -44.63 73.74, -44.60 1.92 6
15 12/04/2011 15:24:17 -73.80, 122.86 -73.82, 122.92 3.32 67
16 12/07/2011 09:19:33 -73.64,-145.62 -73.66,-145.72 3.61 66
17 12/07/2011 10:09:02 73.73, 21.82 73.76, 21.85 3.20 3




NCC Satellite Simultaneous Nadir Overpasses (SNOs) Prediction Service
